Showing default

HAWK-2A, 47505

Orbit data source: Space-Track

HAWK-2A, 47505 is a payload satellite owned by HawkEye 360 (US) in SSO that was launched on Sun, 24 Jan 2021 UTC via an FALCON 9 launch vehicle from the Air Force Eastern Test Range (AFETR). Payload-class satellites include a variety of spacecraft equipped with specific instruments for various scientific and technological missions. These include communications satellites like Starlink; space stations such as the ISS; scientific satellites like the Hubble; Earth observation satellites from companies like Planet Labs, Umbra, and HawkEye 360; GPS; miniature CubeSats for education and research; and military/defense satellites.

Loading next visibility...
Identifier
47505, 2021-006CW
Orbit
SSO
Country
Flag of USUS
Related business
Manufacturer
UTIAS-SFL
Mission
Operational Commercial Sigint
Bus & Motor
DEFIANT, Unknown motor
Mass
31 kg wet, 30 kg dry
Launch date (UTC)
2021-01-24 (5 years ago)
Launch vehicle
FALCON 9
Launch site
Air Force Eastern Test Range (AFETR)
Object type
Payload
Rocket body
Debris
Shape & HBR
Box + 2 Pan, 1.0 m
Radar Cross Section
0.348 m², Medium (>0.1 m² and < 1m²)

Expand to show TLE details & history
Last TLE update: 15 hours ago

TLE from 15 hours ago
0 HAWK-2A
1 47505U 21006CW  25349.38362588  .00006826  00000-0  22514-3 0  9995
2 47505  97.2615  33.0019 0008007 134.6463 225.5433 15.31718231271333
Epoch: 2025-12-15T09:12Z
TLE epoch observation values (Epoch: 2025-12-15T09:12:25.276Z)
Latitude
0.00001°
Longitude
170.61361°
Altitude
477.64 km
Speed
7.625 km/s
True Right ascension
02h 12m 00s
True Declination
0° 00' 00"
Sunlit
Object was in full shadow at epoch
Visualization orbit readout
Latitude
Unknown
Longitude
Unknown
Altitude
Unknown
Speed
Unknown
Apparent Right ascension
Unknown
Apparent Declination
Unknown
Sunlit
N/A
Visualization observer readout
Local Sidereal Time
22:30:52
Azimuth
Unknown
Elevation
Unknown
Doppler factor
Unknown
Orbital elements
Apogee altitude
473.111 km
Perigee altitude
462.148 km
Semi-major axis
6,845.767 km
Eccentricity
0.0008
Inclination
97.2615°
RAAN
33.0019°
Arg. of periapsis
134.6463°
True anomaly
225.47785°
Mean anomaly
225.5433°
Eccentric anomaly
225.51057°
Mean motion
3.83186 °/min
Orbital period
93.95 mins
BSTAR
0.00022514
Loading maneuver chart data...
Computing Atmospheric mass density...

Documentation

Showing up to 5 results
|